Lancaster, SC

1:16 AM EDT on March 27, 2017 (GMT -0400)
Lancaster County-McWhirter

Weather History for KLKR - March, 2013

Change the Weather History Date:

Wednesday, March 6, 2013

  Actual Average (KUZA) Record (KUZA)
Temperature  
Mean Temperature 44 °F -  
Max Temperature 53 °F 63 °F 83 °F (1955)
Min Temperature 33 °F 41 °F 12 °F (1960)
Degree Days  
Heating Degree Days 21    
Moisture  
Dew Point 26 °F    
Average Humidity 54    
Maximum Humidity 87    
Minimum Humidity 30    
Precipitation  
Precipitation 0.00 in - - ()
Sea Level Pressure  
Sea Level Pressure 29.87 in    
Wind  
Wind Speed 14 mph (WNW)    
Max Wind Speed 20 mph    
Max Gust Speed 29 mph    
Visibility 10 miles    
Events      
Averages and records for this station are not official NWS values.
T = Trace of Precipitation, MM = Missing Value Source: NWS Daily Summary

Daily Weather History Graph

Daily Weather History Graph

Search for Another Location

Airport or City:

Trip Planner

Search our weather history database for the weather conditions in past years. The results will help you decide how hot, cold, wet, or windy it might be!

Date:

Astronomy

Mar. 06, 2013 Rise Set
Actual Time 6:45 AM EST 6:23 PM EST
Civil Twilight 6:20 AM EST 6:49 PM EST
Nautical Twilight 5:51 AM EST 7:18 PM EST
Astronomical Twilight 5:22 AM EST 7:47 PM EST
Moon 2:43 AM EST (3/6) 1:13 PM EST (3/6)
Length of Visible Light 12h 28m
Length of Day
11h 37m
Waning Crescent, 30% of the Moon is Illuminated
Mar 6
Waning Crescent
Mar 11
New
Mar 19
First Quarter
Mar 27
Full
Apr 3
Last Quarter

Hourly Weather History & Observations

Time (EST) Temp. Windchill Dew Point Humidity Pressure Visibility Wind Dir Wind Speed Gust Speed Precip Events Conditions
12:15 AM 50.0 °F - 46.4 °F 87% 29.63 in 10.0 mi WSW 15.0 mph 20.7 mph N/A   Clear
12:35 AM 48.2 °F - 44.6 °F 87% 29.63 in 10.0 mi WSW 15.0 mph 23.0 mph N/A   Clear
12:55 AM 48.2 °F - 41.0 °F 76% 29.64 in 10.0 mi WSW 13.8 mph 21.9 mph N/A   Clear
1:15 AM 46.4 °F 39.8 °F 41.0 °F 81% 29.65 in 10.0 mi WSW 16.1 mph 23.0 mph N/A   Partly Cloudy
1:35 AM 46.4 °F 39.8 °F 37.4 °F 71% 29.67 in 10.0 mi WSW 16.1 mph 20.7 mph N/A   Partly Cloudy
2:15 AM 42.8 °F 34.8 °F 32.0 °F 66% 29.68 in 10.0 mi WSW 17.3 mph 23.0 mph N/A   Mostly Cloudy
2:35 AM 42.8 °F 34.3 °F 32.0 °F 66% 29.69 in 10.0 mi WSW 19.6 mph 25.3 mph N/A   Overcast
2:55 AM 41.0 °F 32.5 °F 32.0 °F 70% 29.69 in 10.0 mi WSW 17.3 mph 23.0 mph N/A   Overcast
3:15 AM 41.0 °F 32.8 °F 30.2 °F 65% 29.69 in 10.0 mi West 16.1 mph 24.2 mph N/A   Overcast
3:35 AM 41.0 °F 33.1 °F 30.2 °F 65% 29.69 in 10.0 mi WSW 15.0 mph 21.9 mph N/A   Mostly Cloudy
3:55 AM 41.0 °F 33.1 °F 30.2 °F 65% 29.70 in 10.0 mi WSW 15.0 mph 24.2 mph N/A   Mostly Cloudy
4:15 AM 41.0 °F 33.5 °F 30.2 °F 65% 29.70 in 10.0 mi WSW 13.8 mph 19.6 mph N/A   Mostly Cloudy
4:35 AM 41.0 °F 33.1 °F 28.4 °F 61% 29.71 in 10.0 mi West 15.0 mph 21.9 mph N/A   Mostly Cloudy
4:55 AM 39.2 °F 31.2 °F 28.4 °F 65% 29.72 in 10.0 mi WSW 13.8 mph 18.4 mph N/A   Scattered Clouds
5:15 AM 39.2 °F 32.0 °F 28.4 °F 65% 29.72 in 10.0 mi West 11.5 mph 19.6 mph N/A   Partly Cloudy
5:35 AM 37.4 °F 29.8 °F 28.4 °F 70% 29.73 in 10.0 mi WSW 11.5 mph 18.4 mph N/A   Partly Cloudy
5:55 AM 37.4 °F 30.8 °F 26.6 °F 65% 29.74 in 10.0 mi West 9.2 mph - N/A   Partly Cloudy
6:15 AM 37.4 °F 30.3 °F 26.6 °F 65% 29.74 in 10.0 mi West 10.4 mph - N/A   Clear
6:35 AM 37.4 °F 29.8 °F 26.6 °F 65% 29.76 in 10.0 mi WSW 11.5 mph - N/A   Partly Cloudy
6:55 AM 35.6 °F 27.5 °F 26.6 °F 70% 29.77 in 10.0 mi West 11.5 mph - N/A   Clear
7:15 AM 35.6 °F 29.2 °F 24.8 °F 65% 29.77 in 10.0 mi West 8.1 mph - N/A   Clear
7:35 AM 35.6 °F 29.2 °F 24.8 °F 65% 29.79 in 10.0 mi West 8.1 mph - N/A   Clear
8:15 AM 37.4 °F 29.8 °F 26.6 °F 65% 29.81 in 10.0 mi West 11.5 mph - N/A   Clear
8:35 AM 37.4 °F 28.9 °F 24.8 °F 60% 29.82 in 10.0 mi WNW 13.8 mph 20.7 mph N/A   Clear
9:15 AM 39.2 °F 29.6 °F 21.2 °F 49% 29.83 in 10.0 mi West 19.6 mph 26.5 mph N/A   Clear
9:35 AM 41.0 °F 31.9 °F 21.2 °F 45% 29.84 in 10.0 mi WNW 19.6 mph 28.8 mph N/A   Clear
9:55 AM 41.0 °F 33.9 °F 21.2 °F 45% 29.84 in 10.0 mi West 12.7 mph 25.3 mph N/A   Clear
10:15 AM 41.0 °F 32.5 °F 21.2 °F 45% 29.85 in 10.0 mi West 17.3 mph 24.2 mph N/A   Clear
10:35 AM 42.8 °F 35.8 °F 21.2 °F 42% 29.85 in 10.0 mi West 13.8 mph 23.0 mph N/A   Partly Cloudy
10:55 AM 44.6 °F 37.2 °F 21.2 °F 39% 29.86 in 10.0 mi West 17.3 mph 25.3 mph N/A   Clear
11:15 AM 42.8 °F 35.8 °F 19.4 °F 39% 29.86 in 10.0 mi West 13.8 mph 24.2 mph N/A   Clear
11:35 AM 46.4 °F 39.8 °F 23.0 °F 40% 29.86 in 10.0 mi West 16.1 mph 27.6 mph N/A   Partly Cloudy
12:15 PM 46.4 °F 39.5 °F 23.0 °F 40% 29.86 in 10.0 mi West 17.3 mph 24.2 mph N/A   Scattered Clouds
12:35 PM 48.2 °F - 23.0 °F 37% 29.85 in 10.0 mi West 17.3 mph 21.9 mph N/A   Partly Cloudy
12:55 PM 48.2 °F - 23.0 °F 37% 29.85 in 10.0 mi West 13.8 mph 21.9 mph N/A   Partly Cloudy
1:15 PM 48.2 °F - 24.8 °F 40% 29.84 in 10.0 mi West 17.3 mph 24.2 mph N/A   Clear
1:35 PM 50.0 °F - 24.8 °F 37% 29.84 in 10.0 mi West 13.8 mph 19.6 mph N/A   Clear
2:15 PM 51.8 °F - 23.0 °F 33% 29.84 in 10.0 mi NW 12.7 mph 20.7 mph N/A   Clear
2:35 PM 53.6 °F - 23.0 °F 30% 29.85 in 10.0 mi West 19.6 mph 24.2 mph N/A   Partly Cloudy
2:55 PM 51.8 °F - 23.0 °F 33% 29.86 in 10.0 mi NNW 15.0 mph 24.2 mph N/A   Partly Cloudy
3:15 PM 51.8 °F - 23.0 °F 33% 29.86 in 10.0 mi NNW 16.1 mph 25.3 mph N/A   Clear
3:35 PM 50.0 °F - 23.0 °F 35% 29.87 in 10.0 mi NW 17.3 mph 28.8 mph N/A   Clear
4:15 PM 50.0 °F - 23.0 °F 35% 29.90 in 10.0 mi WNW 17.3 mph 27.6 mph N/A   Clear
4:35 PM 50.0 °F - 24.8 °F 37% 29.91 in 10.0 mi NW 11.5 mph 24.2 mph N/A   Clear
4:55 PM 48.2 °F - 24.8 °F 40% 29.93 in 10.0 mi NNW 11.5 mph 21.9 mph N/A   Clear
5:15 PM 46.4 °F 40.4 °F 24.8 °F 43% 29.95 in 10.0 mi WNW 13.8 mph 23.0 mph N/A   Clear
5:35 PM 46.4 °F 40.7 °F 24.8 °F 43% 29.97 in 10.0 mi WNW 12.7 mph 18.4 mph N/A   Clear
5:55 PM 46.4 °F 41.1 °F 24.8 °F 43% 29.98 in 10.0 mi NW 11.5 mph 18.4 mph N/A   Clear
6:15 PM 44.6 °F 39.7 °F 24.8 °F 46% 30.00 in 10.0 mi NW 9.2 mph - N/A   Clear
6:35 PM 42.8 °F 39.3 °F 24.8 °F 49% 30.01 in 10.0 mi NW 5.8 mph - N/A   Clear
6:55 PM 41.0 °F 36.4 °F 24.8 °F 53% 30.02 in 10.0 mi NW 6.9 mph - N/A   Clear
7:15 PM 42.8 °F 36.2 °F 23.0 °F 46% 30.03 in 10.0 mi NW 12.7 mph 18.4 mph N/A   Clear
7:35 PM 42.8 °F 36.2 °F 23.0 °F 46% 30.05 in 10.0 mi NNW 12.7 mph 24.2 mph N/A   Clear
7:55 PM 41.0 °F 36.4 °F 23.0 °F 49% 30.06 in 10.0 mi NNW 6.9 mph 19.6 mph N/A   Clear
8:15 PM 41.0 °F 36.4 °F 23.0 °F 49% 30.06 in 10.0 mi NNW 6.9 mph - N/A   Clear
8:35 PM 39.2 °F 33.6 °F 24.8 °F 56% 30.06 in 10.0 mi NNW 8.1 mph - N/A   Clear
8:55 PM 39.2 °F 32.5 °F 24.8 °F 56% 30.06 in 10.0 mi NNW 10.4 mph - N/A   Clear
9:15 PM 39.2 °F 33.6 °F 24.8 °F 56% 30.07 in 10.0 mi NNW 8.1 mph - N/A   Clear
9:35 PM 37.4 °F 31.4 °F 24.8 °F 60% 30.07 in 10.0 mi NNW 8.1 mph - N/A   Clear
9:55 PM 37.4 °F 32.8 °F 24.8 °F 60% 30.08 in 10.0 mi NNW 5.8 mph - N/A   Clear
10:15 PM 37.4 °F 31.4 °F 24.8 °F 60% 30.09 in 10.0 mi NNW 8.1 mph - N/A   Clear
10:35 PM 37.4 °F 32.8 °F 24.8 °F 60% 30.09 in 10.0 mi North 5.8 mph - N/A   Clear
10:55 PM 35.6 °F 31.7 °F 24.8 °F 65% 30.11 in 10.0 mi NNW 4.6 mph - N/A   Clear
11:15 PM 35.6 °F 32.8 °F 24.8 °F 65% 30.12 in 10.0 mi NW 3.5 mph - N/A   Clear
11:35 PM 35.6 °F 32.8 °F 24.8 °F 65% 30.12 in 10.0 mi NW 3.5 mph - N/A   Clear
11:55 PM 33.8 °F 29.6 °F 24.8 °F 70% 30.13 in 10.0 mi NW 4.6 mph - N/A   Clear